EW6320 Weather Reports


time (UTC)temp
C
wind
direction
speed
KPH
gust
KPH
rain 1hr
cm
rain 24hr
cm
rain mn
cm
humidity
%
barometer
mb
20260906122243 21 100 1.6 6.4 0.00 0.00 0.00 91 1015.6
20260906121522 21 27 1.6 6.4 0.00 0.00 0.00 91 1015.6
20260906121014 21 108 0.0 4.8 0.00 0.00 0.00 91 1015.5
20260906120512 21 44 1.6 12.9 0.00 0.00 0.00 90 1015.5
20260906120228 21 91 1.6 12.9 0.00 0.00 0.00 90 1015.3
20260906115506 21 59 3.2 12.9 0.00 0.00 0.00 90 1015.3
20260906115006 21 99 3.2 12.9 0.00 0.00 0.00 90 1015.3
20260906114505 21 44 3.2 11.3 0.00 0.00 0.00 89 1015.1
20260906114005 21 89 4.8 11.3 0.00 0.00 0.00 89 1014.9
20260906113730 21 82 3.2 11.3 0.00 0.00 0.00 89 1014.9
20260906113227 21 86 1.6 9.7 0.00 0.00 0.00 89 1014.9
20260906112506 21 49 1.6 9.7 0.00 0.00 0.00 89 1014.8
20260906112006 21 36 1.6 4.8 0.00 0.00 0.00 89 1014.7
20260906111503 21 5 1.6 4.8 0.00 0.00 0.00 88 1014.8
20260906111227 21 46 1.6 9.7 0.00 0.00 0.00 88 1014.7
20260906110504 22 84 1.6 9.7 0.00 0.00 0.00 88 1014.6
20260906110000 22 75 1.6 12.9 0.00 0.00 0.00 88 1014.3
20260906105720 22 35 1.6 12.9 0.00 0.00 0.00 88 1014.4
20260906104956 22 194 1.6 4.8 0.00 0.00 0.00 88 1014.3
20260906104456 22 26 1.6 8.0 0.00 0.00 0.00 88 1014.3
20260906104217 22 355 1.6 9.7 0.00 0.00 0.00 87 1014.2
20260906103456 22 78 1.6 9.7 0.00 0.00 0.00 87 1014.2
20260906102951 22 280 1.6 9.7 0.00 0.00 0.00 87 1014.2
20260906102452 22 24 1.6 9.7 0.00 0.00 0.00 87 1014.0
20260906101948 22 34 1.6 4.8 0.00 0.00 0.00 87 1014.0
20260906101448 22 355 1.6 4.8 0.00 0.00 0.00 87 1013.9
20260906100948 22 25 0.0 4.8 0.00 0.00 0.00 87 1013.9
20260906100447 22 25 1.6 4.8 0.00 0.00 0.00 87 1013.9
20260906100207 22 37 1.6 3.2 0.00 0.00 0.00 86 1013.9
20260906095444 22 34 1.6 4.8 0.00 0.00 0.00 86 1013.9
20260906094940 22 355 1.6 4.8 0.00 0.00 0.00 86 1013.9
20260906094440 23 46 1.6 4.8 0.00 0.00 0.00 86 1013.9
20260906094204 23 19 1.6 4.8 0.00 0.00 0.00 86 1013.7
20260906093439 23 9 1.6 4.8 0.00 0.00 0.00 86 1013.7
20260906092935 23 15 1.6 4.8 0.00 0.00 0.00 86 1013.6
20260906092436 23 26 1.6 3.2 0.00 0.00 0.00 85 1013.7
20260906091931 23 36 1.6 3.2 0.00 0.00 0.00 85 1013.7
20260906091431 23 40 1.6 4.8 0.00 0.00 0.00 85 1013.6
20260906090925 23 45 1.6 4.8 0.00 0.00 0.00 85 1013.6
20260906090422 23 13 1.6 3.2 0.00 0.00 0.00 84 1013.5
20260906085922 23 57 1.6 4.8 0.00 0.00 0.00 84 1013.5
20260906085644 23 82 1.6 4.8 0.00 0.00 0.00 84 1013.5
20260906084922 23 81 1.6 4.8 0.00 0.00 0.00 83 1013.5
20260906084422 23 41 1.6 3.2 0.00 0.00 0.00 83 1013.4
20260906083921 24 34 0.0 3.2 0.00 0.00 0.00 83 1013.4
20260906083420 24 44 1.6 6.4 0.00 0.00 0.00 83 1013.4
20260906082918 24 43 1.6 6.4 0.00 0.00 0.00 82 1013.4
20260906082417 24 238 1.6 6.4 0.00 0.00 0.00 81 1013.4
20260906081915 24 38 1.6 6.4 0.00 0.00 0.00 81 1013.4
20260906081417 24 26 1.6 4.8 0.00 0.00 0.00 81 1013.4
20260906080915 25 31 1.6 3.2 0.00 0.00 0.00 80 1013.4
20260906080640 25 34 0.0 6.4 0.00 0.00 0.00 80 1013.2
20260906080128 25 29 1.6 6.4 0.00 0.00 0.00 80 1013.2
20260906075409 25 41 1.6 6.4 0.00 0.00 0.00 79 1013.2
20260906074909 25 48 3.2 8.0 0.00 0.00 0.00 79 1013.3
20260906074407 25 13 1.6 8.0 0.00 0.00 0.00 79 1013.3
20260906073905 25 46 0.0 3.2 0.00 0.00 0.00 79 1013.3
20260906073633 25 46 0.0 3.2 0.00 0.00 0.00 79 1013.2
20260906072901 25 46 1.6 3.2 0.00 0.00 0.00 78 1013.2
20260906072405 25 46 0.0 3.2 0.00 0.00 0.00 78 1013.2
20260906071901 25 69 0.0 3.2 0.00 0.00 0.00 78 1013.1
20260906071401 26 69 1.6 3.2 0.00 0.00 0.00 78 1013.1
20260906070859 26 69 1.6 6.4 0.00 0.00 0.00 78 1013.2
20260906070358 26 61 1.6 6.4 0.00 0.00 0.00 78 1013.2
20260906065855 26 101 1.6 4.8 0.00 0.00 0.00 78 1013.1
20260906065355 26 98 1.6 4.8 0.00 0.00 0.00 78 1013.1
20260906064854 26 86 0.0 4.8 0.00 0.00 0.00 77 1013.2
20260906064355 26 40 1.6 6.4 0.00 0.00 0.00 77 1013.3
20260906063853 26 97 3.2 6.4 0.00 0.00 0.00 76 1013.3
20260906063354 26 67 3.2 11.3 0.00 0.00 0.00 76 1013.4
20260906062853 26 98 3.2 9.7 0.00 0.00 0.00 75 1013.3
20260906062347 26 47 4.8 11.3 0.00 0.00 0.00 75 1013.4
20260906061847 26 76 4.8 11.3 0.00 0.00 0.00 75 1013.6
20260906061347 27 70 4.8 14.5 0.00 0.00 0.00 76 1013.5
20260906060841 27 80 4.8 14.5 0.00 0.00 0.00 76 1013.6
20260906060341 27 84 3.2 9.7 0.00 0.00 0.00 77 1013.7
20260906055841 27 57 1.6 12.9 0.00 0.00 0.00 77 1013.7
20260906055335 27 39 3.2 12.9 0.00 0.00 0.00 77 1013.6
20260906055058 27 123 3.2 12.9 0.00 0.00 0.00 77 1013.6
20260906054335 27 99 3.2 12.9 0.00 0.00 0.00 76 1013.7
20260906053829 27 32 4.8 14.5 0.00 0.00 0.00 76 1013.6
20260906053329 27 63 4.8 14.5 0.00 0.00 0.00 75 1013.6
20260906052829 27 79 4.8 12.9 0.00 0.00 0.00 75 1013.5
20260906052327 27 89 4.8 12.9 0.00 0.00 0.00 75 1013.5
20260906051827 27 42 4.8 12.9 0.00 0.00 0.00 76 1013.6
20260906051547 28 42 4.8 12.9 0.00 0.00 0.00 76 1013.6
20260906050827 28 111 4.8 11.3 0.00 0.00 0.00 76 1013.6
20260906050551 28 142 4.8 11.3 0.00 0.00 0.00 76 1013.4
20260906045821 28 101 4.8 19.3 0.00 0.00 0.00 75 1013.3
20260906045321 28 29 4.8 19.3 0.00 0.00 0.00 75 1013.2
20260906044819 28 71 4.8 12.9 0.00 0.00 0.00 75 1013.2
20260906044318 28 63 3.2 12.9 0.00 0.00 0.00 75 1013.1
20260906044038 28 42 4.8 12.9 0.00 0.00 0.00 74 1013.1
20260906043318 28 76 3.2 11.3 0.00 0.00 0.00 74 1013.1
20260906043035 28 76 3.2 11.3 0.00 0.00 0.00 74 1013.0
20260906042539 28 37 3.2 11.3 0.00 0.00 0.00 74 1013.0
20260906041811 29 40 1.6 6.4 0.00 0.00 0.00 73 1013.0
20260906041527 29 86 1.6 4.8 0.00 0.00 0.00 73 1013.0
20260906040809 29 69 1.6 3.2 0.00 0.00 0.00 73 1012.9
20260906040306 29 42 1.6 4.8 0.00 0.00 0.00 72 1013.0
20260906035804 29 29 1.6 4.8 0.00 0.00 0.00 72 1013.0
20260906035306 29 34 0.0 3.2 0.00 0.00 0.00 72 1013.0
20260906035018 29 42 0.0 1.6 0.00 0.00 0.00 71 1012.8
20260906034257 30 42 0.0 3.2 0.00 0.00 0.00 71 1012.8
20260906034015 30 42 0.0 3.2 0.00 0.00 0.00 71 1012.8
20260906033253 30 42 0.0 1.6 0.00 0.00 0.00 71 1012.7
20260906032751 30 42 0.0 1.6 0.00 0.00 0.00 70 1012.6
20260906032510 30 42 0.0 1.6 0.00 0.00 0.00 70 1012.6
20260906031748 30 42 0.0 1.6 0.00 0.00 0.00 69 1012.5
20260906031725 30 42 0.0 3.2 0.00 0.00 0.00 69 1012.6
20260906031011 30 42 0.0 3.2 0.00 0.00 0.00 68 1012.5
20260906030245 30 42 0.0 3.2 0.00 0.00 0.00 68 1012.5
20260906025735 30 42 0.0 3.2 0.00 0.00 0.00 68 1012.5
20260906025235 30 42 1.6 4.8 0.00 0.00 0.00 67 1012.4
20260906024731 30 109 1.6 4.8 0.00 0.00 0.00 67 1012.5
20260906024229 30 70 1.6 9.7 0.00 0.00 0.00 67 1012.4
20260906023728 30 47 3.2 9.7 0.00 0.00 0.00 67 1012.4
20260906023225 31 56 3.2 11.3 0.00 0.00 0.00 66 1012.4
20260906022723 31 86 3.2 11.3 0.00 0.00 0.00 66 1012.3
20260906022223 31 59 3.2 6.4 0.00 0.00 0.00 66 1012.2
20260906021940 31 49 1.6 6.4 0.00 0.00 0.00 66 1012.1
20260906021217 30 105 0.0 6.4 0.00 0.00 0.00 66 1012.0
20260906020721 31 336 0.0 0.0 0.00 0.00 0.00 66 1011.9
20260906020435 31 336 0.0 0.0 0.00 0.00 0.00 65 1011.8
20260906020156 31 336 0.0 0.0 0.00 0.00 0.00 64 1011.7
20260906015211 31 336 0.0 0.0 0.00 0.00 0.00 64 1011.5
20260906014710 31 336 0.0 0.0 0.00 0.00 0.00 64 1011.5
20260906014209 31 336 0.0 0.0 0.00 0.00 0.00 64 1011.5
20260906013703 31 336 0.0 0.0 0.00 0.00 0.00 64 1011.5
20260906013203 31 336 0.0 0.0 0.00 0.00 0.00 63 1011.4
20260906012703 31 336 0.0 0.0 0.00 0.00 0.00 63 1011.5
20260906012157 31 336 0.0 0.0 0.00 0.00 0.00 63 1011.5
20260906011657 31 336 0.0 0.0 0.00 0.00 0.00 63 1011.5
20260906011157 31 336 0.0 0.0 0.00 0.00 0.00 62 1011.4
20260906010909 31 336 0.0 0.0 0.00 0.00 0.00 62 1011.3
20260906010414 31 336 0.0 0.0 0.00 0.00 0.00 62 1011.3
20260906005651 32 336 0.0 0.0 0.00 0.00 0.00 61 1011.2
20260906005144 32 336 0.0 0.0 0.00 0.00 0.00 61 1011.2
20260906004645 32 336 0.0 0.0 0.00 0.00 0.00 61 1011.2
20260906004142 32 336 0.0 0.0 0.00 0.00 0.00 60 1011.2
20260906003637 32 336 0.0 0.0 0.00 0.00 0.00 58 1011.0
20260906003137 33 336 0.0 0.0 0.00 0.00 0.00 57 1011.0
20260906002637 33 336 0.0 0.0 0.00 0.00 0.00 57 1011.1
20260906002130 33 336 0.0 0.0 0.00 0.00 0.00 57 1011.2
20260906002117 33 336 0.0 0.0 0.00 0.00 0.00 56 1011.2
20260906001129 33 336 0.0 0.0 0.00 0.00 0.00 55 1011.2
20260906000626 34 336 0.0 0.0 0.00 0.00 0.00 54 1011.2
20260906000131 34 313 0.0 0.0 0.00 0.00 0.00 53 1011.2
20260905235627 34 313 0.0 3.2 0.00 0.00 0.00 53 1011.3
20260905235127 35 313 0.0 3.2 0.00 0.00 0.00 52 1011.3
20260905234625 35 309 0.0 3.2 0.00 0.00 0.00 52 1011.2
20260905234123 35 309 1.6 4.8 0.00 0.00 0.00 52 1011.2
20260905233623 35 309 1.6 4.8 0.00 0.00 0.00 51 1011.1
20260905233123 35 324 1.6 6.4 0.00 0.00 0.00 51 1011.1
20260905232623 35 316 3.2 6.4 0.00 0.00 0.00 51 1011.1
20260905232122 35 298 1.6 6.4 0.00 0.00 0.00 50 1011.1
20260905231621 36 281 3.2 4.8 0.00 0.00 0.00 50 1011.1
20260905231114 36 321 1.6 4.8 0.00 0.00 0.00 50 1011.0
20260905230608 36 317 1.6 4.8 0.00 0.00 0.00 50 1011.0
20260905230109 36 335 3.2 6.4 0.00 0.00 0.00 48 1011.1
20260905225609 36 312 3.2 6.4 0.00 0.00 0.00 48 1011.1
20260905225105 36 13 3.2 14.5 0.00 0.00 0.00 48 1011.1
20260905224605 36 306 3.2 14.5 0.00 0.00 0.00 48 1011.0
20260905224101 36 300 4.8 14.5 0.00 0.00 0.00 47 1011.0
20260905223601 36 323 6.4 14.5 0.00 0.00 0.00 46 1010.9
20260905223100 37 324 4.8 14.5 0.00 0.00 0.00 46 1010.9
20260905222601 37 342 3.2 9.7 0.00 0.00 0.00 47 1010.9
20260905222057 37 330 4.8 16.1 0.00 0.00 0.00 46 1010.9
20260905221558 37 311 6.4 17.7 0.00 0.00 0.00 45 1011.0
20260905221053 37 324 6.4 19.3 0.00 0.00 0.00 46 1010.9
20260905220553 37 321 6.4 19.3 0.00 0.00 0.00 45 1010.8
20260905220052 37 321 6.4 16.1 0.00 0.00 0.00 46 1011.0
20260905215553 38 291 6.4 19.3 0.00 0.00 0.00 43 1010.8
20260905215048 38 32 8.0 19.3 0.00 0.00 0.00 42 1010.7
20260905214818 38 309 9.7 17.7 0.00 0.00 0.00 41 1010.7
20260905214045 38 314 8.0 20.9 0.00 0.00 0.00 41 1010.8
20260905213545 38 273 6.4 20.9 0.00 0.00 0.00 40 1010.8
20260905213045 38 314 6.4 20.9 0.00 0.00 0.00 40 1010.7
20260905212544 38 316 4.8 14.5 0.00 0.00 0.00 40 1010.8
20260905212041 38 315 6.4 20.9 0.00 0.00 0.00 39 1010.9
20260905211541 38 309 6.4 20.9 0.00 0.00 0.00 40 1010.9
20260905211038 38 298 4.8 12.9 0.00 0.00 0.00 41 1010.9
20260905210539 38 309 4.8 12.9 0.00 0.00 0.00 42 1010.9
20260905210043 38 265 4.8 12.9 0.00 0.00 0.00 42 1011.0
20260905205534 38 265 3.2 11.3 0.00 0.00 0.00 42 1011.1
20260905205306 37 19 3.2 11.3 0.00 0.00 0.00 44 1011.2
20260905204537 37 346 3.2 11.3 0.00 0.00 0.00 45 1011.2
20260905204035 37 316 6.4 17.7 0.00 0.00 0.00 45 1011.2
20260905203532 37 24 9.7 17.7 0.00 0.00 0.00 43 1011.2
20260905203032 37 302 8.0 20.9 0.00 0.00 0.00 42 1011.3
20260905202532 38 261 6.4 20.9 0.00 0.00 0.00 41 1011.3
20260905202033 38 313 8.0 19.3 0.00 0.00 0.00 42 1011.3
20260905201533 38 323 8.0 19.3 0.00 0.00 0.00 43 1011.4
20260905201036 37 292 6.4 17.7 0.00 0.00 0.00 42 1011.5
20260905200529 38 307 6.4 14.5 0.00 0.00 0.00 42 1011.4
20260905200030 38 227 4.8 14.5 0.00 0.00 0.00 42 1011.4
20260905195753 38 276 4.8 14.5 0.00 0.00 0.00 43 1011.5
20260905195027 37 278 4.8 14.5 0.00 0.00 0.00 44 1011.5
20260905195018 37 323 8.0 17.7 0.00 0.00 0.00 44 1011.5
20260905194022 37 250 6.4 17.7 0.00 0.00 0.00 45 1011.6
20260905193522 37 286 6.4 14.5 0.00 0.00 0.00 45 1011.7
20260905193240 37 300 6.4 14.5 0.00 0.00 0.00 44 1011.8
20260905192521 37 295 4.8 14.5 0.00 0.00 0.00 44 1011.8
20260905192012 38 315 6.4 20.9 0.00 0.00 0.00 43 1011.9
20260905191515 37 316 9.7 20.9 0.00 0.00 0.00 44 1012.1
20260905191008 37 269 9.7 20.9 0.00 0.00 0.00 42 1012.2
20260905190733 38 261 8.0 20.9 0.00 0.00 0.00 43 1012.2
20260905190004 37 333 9.7 19.3 0.00 0.00 0.00 43 1012.3
20260905185508 37 303 9.7 19.3 0.00 0.00 0.00 42 1012.3
20260905184958 37 286 8.0 19.3 0.00 0.00 0.00 43 1012.4
20260905184456 37 296 8.0 17.7 0.00 0.00 0.00 44 1012.4
20260905183957 37 275 4.8 14.5 0.00 0.00 0.00 46 1012.5
20260905183456 37 208 4.8 12.9 0.00 0.00 0.00 47 1012.6
20260905182952 37 287 4.8 19.3 0.00 0.00 0.00 47 1012.7
20260905182450 36 346 4.8 19.3 0.00 0.00 0.00 48 1012.7
20260905181949 36 104 8.0 19.3 0.00 0.00 0.00 50 1012.7
20260905181705 36 309 6.4 19.3 0.00 0.00 0.00 49 1012.7
20260905180944 36 277 3.2 12.9 0.00 0.00 0.00 49 1012.7
20260905180444 36 300 4.8 12.9 0.00 0.00 0.00 51 1012.8
20260905175940 36 316 8.0 16.1 0.00 0.00 0.00 51 1012.8
20260905175656 36 296 6.4 16.1 0.00 0.00 0.00 51 1012.9
20260905174938 36 315 4.8 12.9 0.00 0.00 0.00 52 1012.9
20260905174434 35 355 4.8 12.9 0.00 0.00 0.00 51 1012.9
20260905173932 36 304 4.8 12.9 0.00 0.00 0.00 53 1012.9
20260905173432 35 301 4.8 12.9 0.00 0.00 0.00 51 1013.0
20260905172928 36 316 3.2 9.7 0.00 0.00 0.00 51 1012.8
20260905172426 35 315 4.8 11.3 0.00 0.00 0.00 53 1012.9
20260905171929 35 293 3.2 11.3 0.00 0.00 0.00 52 1013.0
20260905171424 36 275 3.2 11.3 0.00 0.00 0.00 52 1013.0
20260905170923 36 286 4.8 11.3 0.00 0.00 0.00 52 1013.2
20260905170636 35 297 4.8 11.3 0.00 0.00 0.00 53 1013.2
20260905165918 35 310 4.8 11.3 0.00 0.00 0.00 54 1013.4
20260905165636 35 240 4.8 11.3 0.00 0.00 0.00 53 1013.5
20260905164912 35 318 4.8 11.3 0.00 0.00 0.00 53 1013.6
20260905164412 35 240 4.8 11.3 0.00 0.00 0.00 53 1013.7
20260905163911 35 173 4.8 12.9 0.00 0.00 0.00 53 1013.8
20260905163629 35 250 4.8 12.9 0.00 0.00 0.00 54 1013.8
20260905162906 34 296 6.4 16.1 0.00 0.00 0.00 55 1013.8
20260905162406 34 248 6.4 16.1 0.00 0.00 0.00 56 1013.7
20260905162121 34 309 4.8 11.3 0.00 0.00 0.00 54 1013.7
20260905161359 33 320 4.8 11.3 0.00 0.00 0.00 56 1013.7
20260905160900 33 287 6.4 11.3 0.00 0.00 0.00 55 1013.9
20260905160613 33 307 6.4 12.9 0.00 0.00 0.00 56 1013.9
20260905155854 33 258 6.4 12.9 0.00 0.00 0.00 56 1013.9
20260905155354 33 230 6.4 12.9 0.00 0.00 0.00 56 1013.8
20260905154852 33 309 6.4 12.9 0.00 0.00 0.00 56 1013.9
20260905154352 33 306 4.8 12.9 0.00 0.00 0.00 56 1013.9
20260905154339 33 265 4.8 12.9 0.00 0.00 0.00 57 1013.9
20260905153352 33 296 6.4 12.9 0.00 0.00 0.00 57 1014.0
20260905152853 32 314 4.8 11.3 0.00 0.00 0.00 56 1014.0
20260905152346 32 259 4.8 9.7 0.00 0.00 0.00 58 1013.9
20260905151846 32 254 6.4 11.3 0.00 0.00 0.00 57 1014.0
20260905151346 32 286 6.4 12.9 0.00 0.00 0.00 58 1014.0
20260905150839 32 244 6.4 12.9 0.00 0.00 0.00 57 1013.8
20260905150340 32 250 6.4 12.9 0.00 0.00 0.00 58 1013.9
20260905145836 32 302 4.8 12.9 0.00 0.00 0.00 58 1014.0
20260905145336 31 300 4.8 11.3 0.00 0.00 0.00 60 1013.9
20260905144836 31 240 4.8 11.3 0.00 0.00 0.00 61 1013.9
20260905144335 31 275 4.8 11.3 0.00 0.00 0.00 61 1013.9
20260905143836 31 240 6.4 12.9 0.00 0.00 0.00 61 1013.9
20260905143330 31 290 6.4 14.5 0.00 0.00 0.00 61 1013.9
20260905142829 31 299 6.4 14.5 0.00 0.00 0.00 61 1013.9
20260905142329 31 300 4.8 12.9 0.00 0.00 0.00 62 1013.9
20260905141830 31 300 4.8 12.9 0.00 0.00 0.00 63 1013.9
20260905141329 30 287 4.8 8.0 0.00 0.00 0.00 64 1013.9
20260905140828 30 284 3.2 8.0 0.00 0.00 0.00 64 1013.9
20260905140326 30 257 3.2 6.4 0.00 0.00 0.00 65 1014.0
20260905135820 30 248 3.2 8.0 0.00 0.00 0.00 64 1014.2
20260905135320 30 296 3.2 8.0 0.00 0.00 0.00 65 1014.0
20260905134819 30 275 3.2 6.4 0.00 0.00 0.00 67 1014.0
20260905134320 30 261 1.6 6.4 0.00 0.00 0.00 67 1014.0
20260905134048 29 258 1.6 4.8 0.00 0.00 0.00 68 1014.0
20260905133317 29 236 1.6 4.8 0.00 0.00 0.00 69 1014.0
20260905132818 28 244 1.6 4.8 0.00 0.00 0.00 70 1014.0
20260905132317 28 238 0.0 4.8 0.00 0.00 0.00 71 1014.0
20260905131817 28 217 0.0 0.0 0.00 0.00 0.00 71 1013.9
20260905131315 28 144 0.0 0.0 0.00 0.00 0.00 72 1014.0
20260905131300 27 144 0.0 0.0 0.00 0.00 0.00 72 1014.0
20260905130314 27 144 0.0 0.0 0.00 0.00 0.00 73 1013.9
20260905125809 27 93 0.0 0.0 0.00 0.00 0.00 75 1013.9
20260905125531 27 93 0.0 0.0 0.00 0.00 0.00 75 1013.9
20260905124809 26 93 0.0 0.0 0.00 0.00 0.00 76 1013.8
20260905124310 26 93 0.0 0.0 0.00 0.00 0.00 77 1013.7
20260905123805 26 93 0.0 0.0 0.00 0.00 0.00 78 1013.7
20260905123525 25 93 0.0 0.0 0.00 0.00 0.00 78 1013.7
20260905122802 25 93 0.0 0.0 0.00 0.00 0.00 80 1013.8